Terminal Aerodrome Forecast
Issued by NWS Dodge City, KS

Home | Current Version | Previous Version | Graphics & Text | Print | Product List | Glossary Off
Versions: 1 2 3 4 5 6 7 8 9 10 11 12 13

000
FTUS43 KDDC 140800 AAA
TAFDDC
TAF AMD
KDDC 140810Z 1408/1506 35020G30KT 2SM -SN BKN012 OVC030
     FM141000 36015G25KT 2SM -SN OVC012
     FM141400 36020G28KT P6SM BKN010=

USA.gov is the U.S. government's official web portal to all federal, state and local government web resources and services.